Regional Weather Roundup
Issued by NWS Pendleton, OR

Home | Current Version | Previous Version | Text Only | Print | Product List | Glossary On
Versions: 1 2 3 4 5 6 7 8 9 10 11 12 13 14 15 16 17 18 19 20 21 22 23 24 25 26 27 28 29 30 31 32 33 34 35 36 37 38 39 40 41 42 43 44 45 46 47 48 49 50
000
ASUS46 KPDT 060625
RWRPDT
PENDLETON REGIONAL WEATHER ROUNDUP
NATIONAL WEATHER SERVICE PENDLETON OREGON
1100 PM PDT THU MAY 5 2016

NOTE: FAIR INDICATES FEW OR NO CLOUDS BELOW 12,000 FEET WITH NO
SIGNIFICANT WEATHER AND/OR OBSTRUCTIONS TO VISIBILITY.

# INDICATES UNOFFICIAL STATION AND DATA

WAZ520-060710-
EAST SLOPES OF WASHINGTON CASCADES

CITY            SKY/WX      TMP DP  RH  WIND    PRES   REMARKS
#CLE ELUM HS    N/A         55  47  74  W2      29.97R
#CLE ELUM 2NW   N/A         53  46  77  SW1     N/A
#CLE ELUM LAKE  N/A         50  47  89  CALM    29.98R
#GLENWOOD       N/A         56  54  93  CALM    29.95S
#MANASTASH CYN  N/A         50  45  83  CALM    30.01R
#NELSON 3SW     N/A         48  46  93  CALM    30.18R
#NILE           N/A         53  48  83  CALM    29.26R
#RONALD 2NW     N/A         52  N/A N/A NE1     29.92R
#TEANAWAY 4NE   N/A         52  50  93  NW1     N/A
#TROUT LAKE 1NE N/A         55  51  86  CALM    29.96R
#TROUT LAKE 1E  N/A         56  53  90  CALM    29.96R
$$

WAZ521-060710-
SIMCOE HIGHLANDS

CITY            SKY/WX      TMP DP  RH  WIND    PRES   REMARKS
#BICKLETON HS   N/A         53  39  59  N7      N/A
#CENTERVILLE 1SWN/A         57  53  86  CALM    29.91R
#GOLDENDALE 1NE N/A         58  49  72  NW2     N/A
#GOODNOE HILLS  N/A         62  49  62  N17     29.87R
#LYLE 6NE       N/A         56  52  86  CALM    29.93R
$$

WAZ026-060710-
KITTITAS VALLEY

CITY            SKY/WX      TMP DP  RH  WIND    PRES   REMARKS
ELLENSBURG AP   PTCLDY      57  47  69  N9      29.99R
6HR MIN TEMP:   57; 6HR MAX TEMP:   69;

YTC-OPS AREA    MOCLDY      54  41  61  N7      30.03R
6HR MIN TEMP:   54; 6HR MAX TEMP:   60;

#ELLENSBURG 3NE N/A         55  49  80  N3      29.99R
#ELLENSBURG     N/A         59  52  78  CALM    N/A
#ELLENSBURG 1E  N/A         57  N/A N/A CALM    N/A
#KITTITAS 4N    N/A         51  44  77  W1      30.04R
#KITTITAS 3S    N/A         52  47  83  CALM    29.94R
#THORP 6N       N/A         52  47  83  CALM    29.99R
$$

WAZ027-060710-
YAKIMA VALLEY

CITY            SKY/WX      TMP DP  RH  WIND    PRES   REMARKS
SUNNYSIDE AP    MOCLDY      63  39  41  N20G25  29.94R
YAKIMA AIRPORT  MOCLDY      60  46  60  W5      29.99R
6HR MIN TEMP:   60; 6HR MAX TEMP:   75;

YAKIMA-VAGABOND PTCLDY      58  43  57  E13     29.97R
6HR MIN TEMP:   56; 6HR MAX TEMP:   70;

#DONALD 2NE     N/A         66  21  18  N6      28.82R
#GRANDVIEW      N/A         63  40  43  CALM    29.94R
#MABTON         N/A         65  45  48  NE2     29.95R
#MOXEE 2E       N/A         61  29  30  W6      29.91R
#NACHES 2SW     N/A         59  50  72  W5      29.97S
#TERRACE HTS    N/A         61  45  56  N1      29.91R
#TOPPENISH      N/A         66  45  47  CALM    29.87R
#WEST VALLEY    N/A         61  48  62  CALM    29.94R
#W YAKIMA       N/A         60  50  69  CALM    29.96R
#WHITE SWAN 5E  N/A         62  52  70  CALM    29.96R
#WILEY CITY 3W  N/A         55  46  72  CALM    29.96R
$$

WAZ028-060710-
LOWER COLUMBIA BASIN...WASHINGTON

CITY            SKY/WX      TMP DP  RH  WIND    PRES   REMARKS
PASCO           CLOUDY      61  48  62  NW13    29.93S
6HR MIN TEMP:   61; 6HR MAX TEMP:   74;

PROSSER AWOS    N/A         64  43  46  N9      29.97S
RICHLAND AWOS   CLOUDY      65  45  48  NW15    29.94S
#BENTON CITY    N/A         65  46  50  N7      29.83S
#CONNELL 5N     N/A         56  51  83  NW8     29.89S
#CONNELL 5NW    N/A         56  51  83  NW6     29.86S
#ELTOPIA 6NW    N/A         59  50  72  CALM    28.90S
#KAHLOTUS       N/A         60  52  75  NW7     29.88S
#KENNEWICK 3S   N/A         63  49  60  CALM    29.92S
#PATERSON       N/A         64  50  60  E7      29.89F
#SAGEMOOR 2W    N/A         61  51  70  W6      29.76S
#TOUCHET 2S     N/A         64  55  73  NW3     29.88R
#WEST PASCO     N/A         64  49  58  NW6     29.98S
$$

WAZ029-060710-
FOOTHILLS OF THE BLUES...WASHINGTON

CITY            SKY/WX      TMP DP  RH  WIND    PRES   REMARKS
WALLA WALLA AP  CLOUDY      64  56  75  S5      29.92R
6HR MIN TEMP:   62; 6HR MAX TEMP:   71; 6HR PCP:  0.01;

#CLYDE 6NW      N/A         62  54  75  N5      29.88R
#LOWDEN 2SE     N/A         62  56  81  W2      29.87R
#PLEASANT VIEW 1N/A         62  53  72  W1      29.92R
#PRESCOTT       N/A         62  57  84  CALM    29.88R
#SUDBURY        N/A         62  N/A N/A CALM    N/A
#WHITMAN COLLEGEN/A         64  58  81  SE3     29.94R
#WAITSBURG 5S   N/A         61  56  84  CALM    29.98R
#WAITSBURG 8N   N/A         59  33  37  N3      29.76S
#WALLA WALLA U  N/A         65  59  81  CALM    29.88R
#WHITMAN MISSIONN/A         63  57  81  CALM    29.90R
$$

WAZ030-060710-
BLUE MOUNTAINS...WASHINGTON

CITY            SKY/WX      TMP DP  RH  WIND    PRES   REMARKS
#DIXIE 5SE      N/A         56  54  93  E3      29.90R
$$

ORZ009-041-WAZ024-060710-
COLUMBIA RIVER GORGE

CITY            SKY/WX      TMP DP  RH  WIND    PRES   REMARKS
HOOD RIVER AP   CLOUDY      59  52  78  CALM    29.99R
THE DALLES AP   CLOUDY      64  50  60  N6      29.96R
6HR MIN TEMP:   64; 6HR MAX TEMP:   70;

#ARLINGTON AIRPON/A         65  45  48  N12     29.94R
#ARLINGTON HS   N/A         66  54  65  NW1     29.83R
#MARYHILL 2W    N/A         60  58  93  CALM    N/A
#MOSIER 1S      N/A         59  44  57  CALM    29.97R
#MURDOCK        N/A         62  54  75  N1      29.93R

$$

ORZ510-060710-
NORTH CENTRAL OREGON

CITY            SKY/WX      TMP DP  RH  WIND    PRES   REMARKS
#ANTELOPE       N/A         53  49  86  NE2     29.78S
#CHENOWITH 1W   N/A         57  50  77  NW13    N/A
#DUFUR 9E       N/A         54  51  90  NE5     30.01R
#GRASS VALLEY   N/A         53  53  100 N2      N/A
#GRASS VALLEY 1SN/A         56  52  86  CALM    29.93R
#MAUPIN SCHOOL  N/A         64  53  67  CALM    29.97R
#MORO SCHOOL    N/A         57  56  96  NW5     29.98R
#SHANIKO 4NW    N/A         53  51  93  N13     29.98S
#TYGH VALLEY 2NEN/A         63  52  67  N2      29.91R
#WAPANITIA AIRPON/A         57  51  80  NW1     29.95R
#WASCO 5NE      N/A         56  52  86  CALM    29.94R
$$

ORZ511-060710-
CENTRAL OREGON

CITY            SKY/WX      TMP DP  RH  WIND    PRES   REMARKS
BEND AIRPORT    MOCLDY      52  50  93  NW7     29.97S
MADRAS AIRPORT  CLOUDY      59  54  83  N3      29.99R
PRINEVILLE AP   CLOUDY      52  50  93  NW8     29.96S
REDMOND AIRPORT CLOUDY      54  51  90  NW8     29.96S
6HR MIN TEMP:   53; 6HR MAX TEMP:   57; 6HR PCP:  0.15;

#ASHWOOD SCHOOL N/A         53  49  86  CALM    29.93S
#BEND 1SW       N/A         50  49  96  CALM    N/A
#BEND-AWBREY    N/A         51  50  96  N2      29.92S
#BEND-KIM LN    N/A         51  50  96  NW1     29.95S
#CULVER         N/A         55  51  86  CALM    29.87F
#LAKE BILLY CHINN/A         58  N/A N/A N7      30.05R
#POWELL BUTTE   N/A         51  48  89  SW2     29.84S
#PRINEVILLE 3N  N/A         51  49  93  CALM    29.88R
#WARM SPRINGS   N/A         63  50  62  SW7     29.92S

$$


ORZ509-060710-
EAST SLOPES OF OREGON CASCADES

CITY            SKY/WX      TMP DP  RH  WIND    PRES   REMARKS
SISTERS AWOS    N/A         54  48  80  CALM    29.96S
#CAMP SHERMAN   N/A         50  45  83  CALM    29.98F
#LA PINE 4NW    N/A         48  44  86  CALM    29.93S
#SISTERS AIRPOR N/A         53  53  100 CALM    30.17S
#SISTERS 3N     N/A         52  45  77  CALM    30.00R
#SUNRIVER       N/A         49  48  96  CALM    29.92S
#TUMALO 3W      N/A         52  48  86  NW7     29.80F

$$

ORZ044-060710-
LOWER COLUMBIA BASIN...OREGON

CITY            SKY/WX      TMP DP  RH  WIND    PRES   REMARKS
HERMISTON       MOCLDY      65  50  58  N7      29.91F
6HR MIN TEMP:   65; 6HR MAX TEMP:   74;

#BOARDMAN SCHOOLN/A         64  52  65  CALM    29.93R
#BOARDMAN 8SW   N/A         64  53  67  N3      29.92R
#ECHO 8SW       N/A         62  54  75  CALM    29.94S
#UMATILLA SCHOOLN/A         N/A N/A N/A CALM    N/A
#UMATILLA       N/A         66  48  52  CALM    29.84S
$$

ORZ507-060710-
NORTHERN FOOTHILLS OF THE BLUES

CITY            SKY/WX      TMP DP  RH  WIND    PRES   REMARKS
PENDLETON AIRPT CLOUDY      60  52  75  NW6     29.94R
6HR MIN TEMP:   60; 6HR MAX TEMP:   69; 6HR PCP:  TRACE;

#ADAMS 3WNW     N/A         58  54  87  N1      29.89S
#ATHENA         N/A         59  57  93  CALM    29.91S
#CAYUSE         N/A         60  56  87  SW1     29.89R
#HELIX SCHOOL   N/A         58  53  83  CALM    29.90R
#HELIX 3N       N/A         57  52  83  N9      29.91S
#HOLDMAN 5SE    N/A         61  52  72  CALM    29.93S
#HOLDMAN 6E     N/A         60  52  75  SE6     29.71S
#M-F FERNDALE   N/A         61  57  87  CALM    29.91R
#M-F GROVE ELEM N/A         61  55  81  CALM    29.91R
#M-FREEWATER 5SEN/A         59  56  90  CALM    29.93R
#PENDLETON DNTN N/A         64  52  65  CALM    29.95S
#PDT AQUATIC CTRN/A         63  50  62  CALM    29.96S
#PDT SUNRIDGE   N/A         62  54  75  CALM    29.95R
#PENDLETON 7NW  N/A         62  55  78  CALM    32.33S
#PILOT ROCK     N/A         60  53  78  E1      29.96R
#TUTUILLA       N/A         61  56  84  CALM    29.92R
#UMAPINE 2E     N/A         62  57  84  CALM    29.88R
#WESTON SCHOOL  N/A         58  54  87  CALM    29.85R

$$

ORZ508-060710-
SOUTHERN FOOTHILLS OF THE BLUES

CITY            SKY/WX      TMP DP  RH  WIND    PRES   REMARKS
#AJAX           N/A         57  46  67  CALM    27.73R
#CONDON 5W      N/A         53  50  89  N10     29.97R
#FOSSIL SCHOOL  N/A         57  51  80  CALM    29.93R
#HEPPNER EOC    N/A         59  52  78  CALM    29.85S
#HEPPNER 4NE    N/A         56  52  86  CALM    29.92S
#LEXINGTON 2SE  N/A         59  54  83  CALM    29.91S
#MIKKALO        N/A         58  56  93  CALM    30.07R
#OLEX 4N        N/A         61  55  81  CALM    29.94R
#RUGGS 5NE      N/A         56  53  90  VRB5    30.11F
#RUGGS 2SW      N/A         56  51  83  CALM    29.94R

$$

ORZ502-503-060710-
BLUE MOUNTAINS

CITY            SKY/WX      TMP DP  RH  WIND    PRES   REMARKS
MEACHAM         RAIN        54  52  93  CALM    30.02R FOG
#GREENHORN 9SW  N/A         50  49  96  CALM    26.14F
#HARDMAN 10S    N/A         61  34  36  N5      30.22S
#HEPPNER 15SE   N/A         51  49  93  CALM    29.92R
#LONG CREEK HS  N/A         54  52  93  CALM    N/A
#PIKES PEAK     N/A         55  50  83  N6      27.99S
#TOLLGATE       N/A         47  46  96  CALM    29.89R
#TROY SCHOOL    N/A         61  56  84  CALM    29.72R
#UKIAH          N/A         55  52  90  CALM    29.83S
#WESTON 4E      N/A         54  53  96  CALM    29.88R
$$

ORZ505-060710-
JOHN DAY BASIN

CITY            SKY/WX      TMP DP  RH  WIND    PRES   REMARKS
JOHN DAY        CLOUDY      55  50  83  N17     29.91F
#DAYVILLE SCHOOLN/A         60  46  60  W2      29.90F
#MITCHELL       N/A         53  53  100 CALM    30.12R
#MITCHELL 8NW   N/A         52  49  89  CALM    30.11S
#MONUMENT HS    N/A         60  49  67  CALM    29.87F
#MT. VERNON 5SE N/A         53  48  83  S1      29.87F
#SPRAY SCHOOL   N/A         60  N/A N/A CALM    N/A
#WINLOCK        N/A         55  49  80  CALM    29.93S
$$

ORZ506-060710-
OCHOCO AND JOHN DAY HIGHLANDS

CITY            SKY/WX      TMP DP  RH  WIND    PRES   REMARKS
#PAULINA SCHOOL N/A         58  48  69  CALM    29.17F
#PINE MTN OBS   N/A         42  41  96  NW10    N/A
#PRAIRIE CITY   N/A         53  50  89  W1      29.91R
#SENECA         N/A         50  N/A N/A CALM    N/A
#SENECA 9NW     N/A         49  47  93  SW2     29.78F
$$

ORZ049-060710-
GRANDE RONDE VALLEY

CITY            SKY/WX      TMP DP  RH  WIND    PRES   REMARKS
LA GRANDE       CLOUDY      55  46  72  N12     29.96R
#COVE           N/A         55  55  100 W3      30.00R
#COVE SCHOOL    N/A         55  53  93  CALM    29.99R
#COVE 6NW       N/A         55  52  90  W5      29.84R
#ELGIN 3N       N/A         56  53  90  CALM    29.96R
#ELGIN 1E       N/A         56  51  83  CALM    N/A
#ISLAND CITY 4N N/A         58  49  72  CALM    29.99S
#LA GRANDE ELEM N/A         56  52  86  CALM    29.99R
$$

ORZ050-060710-
WALLOWA COUNTY

CITY            SKY/WX      TMP DP  RH  WIND    PRES   REMARKS
JOSEPH AIRPORT  CLOUDY      52  50  93  CALM    29.99S
#ENTERPRISE AP  N/A         49  29  46  CALM    29.92S
#ENTERPRISE HS  N/A         54  51  90  CALM    29.98S
#IMNAHA SCHOOL  N/A         56  53  90  S2      29.92F
#IMNAHA 10S     N/A         52  49  89  SW3     29.94S
#JOSEPH 3N      N/A         53  47  80  CALM    30.01S
#JOSEPH 3W      N/A         49  48  96  CALM    29.85S
#LOSTINE        N/A         55  51  86  CALM    29.67F
#MT HOWARD 8000 N/A         38  37  96  W2      30.09S
#PROMISE 1S     N/A         54  50  86  CALM    29.97R
#WALLOWA SCHOOL N/A         55  52  90  CALM    29.93S



$$



USA.gov is the U.S. government's official web portal to all federal, state and local government web resources and services.